Wind_Speed
20 18 15 13 12 12 12 10 10 5 5 10 6 6 13 18 17 19 20 21 21 21 23 24 27 23 24 26 25 26 27 27 27 28 28 29 32 30
18 16 14 12 13 12 11 11 10 10 10 9 6 12 20 22 16 20 21 21 20 20 23 27 28 29 27 24 25 26 27 28 29 29 29 29 29 32
16 15 14 16 11 11 11 12 10 9 13 16 12 11 15 19 20 21 21 21 18 21 23 26 30 30 30 30 26 26 26 28 29 29 28 29 29 30
15 15 16 14 14 11 10 9 11 13 15 14 13 13 15 16 16 21 23 23 21 22 21 26 27 28 28 28 28 29 29 26 25 26 30 30 31 31
18 17 14 13 11 9 11 13 10 10 9 12 14 15 12 14 17 19 20 21 24 22 24 27 24 22 23 24 28 25 27 24 24 28 31 34 36 35
18 17 16 13 15 17 19 14 13 13 13 13 14 13 15 16 17 18 22 27 27 27 28 25 22 24 26 30 20 21 21 23 29 33 33 33 35 37
22 18 19 18 20 20 18 18 18 17 16 17 15 17 16 17 17 21 27 30 31 29 22 22 28 34 31 26 25 20 25 25 29 33 36 38 35 34
17 19 16 18 17 18 18 18 18 18 17 17 17 18 17 16 19 25 29 31 35 29 26 35 31 30 32 26 27 28 24 30 33 38 33 30 31 32
20 16 15 14 15 16 17 16 16 16 17 16 16 16 17 19 24 28 29 30 32 33 28 33 32 31 30 34 28 25 31 35 30 28 28 30 35 33
15 14 13 14 16 16 14 14 13 13 14 16 17 18 20 23 25 26 27 29 30 27 22 32 35 37 35 37 39 39 31 25 24 28 34 32 33 33
15 16 16 18 18 15 12 11 13 13 12 15 18 18 23 23 19 20 26 28 32 28 26 31 31 39 44 45 35 20 18 24 33 30 32 32 31 32
14 14 15 19 15 12 11 12 13 13 15 16 19 21 18 17 17 20 24 24 29 36 23 33 40 35 34 34 17 42 41 37 31 33 33 33 32 33
9 10 11 12 12 12 12 12 15 15 15 18 17 14 16 19 19 18 21 27 32 37 37 30 36 36 32 44 43 44 41 39 41 40 38 36 29 26
17 13 14 14 14 14 13 14 13 14 13 12 12 17 19 19 20 24 28 29 28 32 33 31 36 35 40 43 43 44 42 41 38 44 38 31 32 30
16 17 17 16 16 15 16 11 8 8 8 12 18 20 18 23 27 30 25 27 30 31 32 32 32 34 33 38 43 42 43 44 44 36 39 39 40 38
16 16 18 17 16 10 8 7 8 10 11 18 17 21 23 27 30 23 27 31 33 35 33 27 28 31 35 36 39 44 46 43 40 39 36 42 49 45
20 18 16 10 5 5 7 7 8 13 16 19 21 24 28 29 26 28 30 33 34 34 34 33 31 32 35 37 40 37 39 39 35 39 48 51 43 38
13 11 9 6 10 11 13 14 14 16 18 22 25 28 27 28 30 32 30 29 31 33 34 35 37 41 38 33 24 32 35 41 46 45 44 44 48 43
15 12 10 11 12 14 14 14 16 17 22 24 26 28 27 30 31 27 29 30 33 33 34 38 37 33 35 37 37 32 41 42 44 45 42 40 45 49
15 12 10 11 13 15 16 17 20 24 26 28 27 27 25 27 29 29 31 31 32 36 40 35 30 31 32 40 47 49 33 38 39 44 49 49 48 45
7 8 6 11 14 16 18 22 24 26 26 24 23 24 26 28 31 30 29 30 33 35 34 35 34 35 37 37 39 45 47 37 34 38 45 48 50 51
14 13 14 18 19 20 22 24 25 24 22 23 25 28 28 27 27 29 31 32 32 33 35 37 38 35 35 34 40 44 49 48 42 36 34 36 42 48
11 15 18 18 19 20 21 22 23 25 26 28 25 25 26 28 30 30 29 28 31 34 35 36 35 35 35 35 39 42 45 47 49 49 46 36 36 38
Wind_Direction
206 206 212 215 222 221 216 216 208 195 183 204 208 260 278 293 304 309 314 316 320 324 323 324 324 326 320 319 318 316 316 316 316 314 313 309 308 309
202 198 209 222 225 226 223 219 217 207 214 181 211 266 275 287 303 296 308 311 318 322 318 317 319 322 321 318 314 312 312 310 310 310 310 309 306 304
202 202 225 229 226 226 224 215 219 229 244 242 247 269 283 295 298 301 305 308 310 306 311 314 317 320 322 325 319 315 312 310 308 308 307 306 304 300
208 221 217 219 217 222 225 212 222 231 246 258 260 274 277 292 304 303 303 303 300 304 302 306 308 312 315 317 319 322 319 319 314 305 302 306 303 300
208 218 213 214 221 216 230 218 233 238 254 269 278 272 289 286 286 286 290 286 287 295 289 297 307 310 306 302 311 314 313 318 304 302 303 303 301 300
221 206 214 224 211 210 226 224 231 236 238 251 260 272 269 272 275 287 281 284 290 299 304 308 309 289 291 304 308 303 307 295 293 294 295 300 300 297
206 198 232 231 223 230 237 233 227 234 235 243 247 255 264 272 284 285 283 289 298 308 310 292 300 300 308 308 307 301 295 302 293 297 301 302 299 298
205 227 221 226 227 233 233 239 243 250 259 262 264 268 273 277 281 283 291 303 309 310 293 303 309 312 308 309 301 305 296 285 290 295 301 300 301 296
216 208 218 224 233 236 239 245 252 256 259 264 271 278 282 284 282 292 297 298 299 305 317 312 313 306 304 305 305 292 290 299 302 301 302 297 297 296
193 214 222 238 244 239 242 253 265 270 283 290 291 291 287 288 290 295 302 307 306 308 312 302 307 306 305 298 301 305 307 302 298 296 304 300 297 293
201 212 223 235 242 254 249 251 258 262 265 275 285 295 301 304 300 306 307 310 311 310 310 306 308 303 303 305 314 313 297 290 299 302 303 301 299 295
202 215 218 232 246 259 261 263 266 264 274 277 280 289 290 304 313 297 298 295 299 304 311 308 309 316 315 317 297 309 315 315 308 304 304 303 300 296
211 236 239 251 255 266 268 270 271 279 275 282 289 301 307 294 291 287 284 288 295 296 304 310 310 308 298 301 304 311 315 312 312 311 310 311 304 297
197 213 249 259 269 278 282 286 283 280 287 290 304 290 288 293 291 290 291 292 296 301 308 309 304 302 305 302 302 309 309 310 307 305 312 313 308 297
199 213 233 253 268 286 296 297 298 313 311 301 291 300 305 299 297 299 302 299 299 298 299 300 300 303 301 298 301 305 306 304 305 308 313 311 309 306
222 223 235 248 272 280 316 322 318 319 299 300 307 302 298 296 303 309 303 304 303 301 303 307 306 305 302 299 301 301 301 302 309 309 304 296 298 296
227 232 246 251 255 286 299 297 284 288 284 288 286 285 294 304 305 303 301 302 304 307 310 310 309 302 299 300 302 303 306 305 302 298 301 304 303 305
205 215 245 250 246 245 255 266 278 280 280 277 284 293 299 301 300 301 304 307 306 307 307 308 308 309 313 310 305 303 300 298 297 305 309 302 302 307
222 223 232 240 253 271 276 276 275 275 273 280 289 295 295 297 303 306 307 305 304 304 304 305 311 315 309 306 308 303 304 307 309 305 302 298 296 299
242 226 234 249 266 270 271 267 266 272 278 288 293 298 303 305 304 301 301 304 304 302 306 309 308 309 306 305 307 308 307 303 305 302 302 304 300 301
256 262 243 249 256 259 265 272 278 283 289 295 300 299 295 295 297 300 301 300 299 304 304 304 308 308 308 310 304 304 309 309 303 302 303 303 302 303
229 240 253 264 268 272 278 281 286 289 288 286 286 289 293 296 297 296 296 300 303 303 302 304 308 312 311 309 305 306 310 319 317 308 299 293 294 295
253 252 254 256 265 273 277 278 277 280 284 289 292 295 294 292 292 295 298 300 300 302 304 309 309 312 310 308 307 307 309 312 315 318 315 311 303 299
Height
1487 1489 1491 1493 1496 1499 1500 1500 1506 1509 1511 1513 1513 1511 1510 1508 1508 1505 1503 1502 1501 1498 1496 1491 1491 1487 1484 1483 1481 1479 1477 1476 1475 1473 1472 1470 1469 1468
1483 1486 1488 1488 1493 1496 1496 1497 1502 1504 1505 1507 1508 1508 1507 1504 1505 1504 1498 1498 1498 1497 1493 1489 1486 1483 1480 1479 1478 1475 1473 1471 1469 1467 1465 1464 1463 1461
1480 1482 1483 1486 1490 1493 1493 1494 1497 1500 1500 1501 1501 1502 1504 1500 1499 1499 1498 1497 1494 1495 1491 1485 1482 1478 1476 1474 1473 1470 1468 1466 1463 1461 1459 1457 1456 1455
1476 1478 1480 1483 1486 1489 1490 1492 1493 1496 1497 1496 1495 1498 1498 1497 1495 1493 1495 1494 1490 1487 1487 1481 1477 1474 1470 1469 1467 1465 1462 1460 1457 1455 1453 1451 1448 1447
1472 1473 1478 1481 1483 1487 1487 1488 1489 1491 1495 1495 1494 1495 1495 1493 1489 1489 1491 1491 1487 1482 1481 1477 1474 1469 1467 1464 1462 1460 1458 1456 1452 1449 1447 1443 1441 1439
1468 1470 1473 1476 1480 1482 1485 1486 1487 1488 1490 1490 1489 1491 1490 1490 1485 1484 1483 1483 1479 1475 1474 1471 1468 1463 1460 1459 1456 1455 1454 1450 1446 1443 1440 1436 1433 1431
1463 1465 1469 1473 1476 1477 1479 1480 1481 1482 1485 1486 1485 1486 1486 1485 1481 1478 1477 1473 1471 1468 1464 1462 1459 1456 1452 1450 1449 1449 1446 1442 1438 1435 1432 1428 1425 1422
1461 1463 1466 1469 1471 1474 1475 1476 1477 1478 1480 1481 1481 1481 1480 1481 1479 1473 1472 1469 1461 1462 1456 1452 1451 1446 1444 1442 1441 1439 1438 1434 1431 1427 1423 1420 1417 1414
1456 1459 1462 1464 1467 1469 1470 1471 1473 1473 1475 1475 1476 1474 1475 1476 1474 1468 1466 1463 1459 1456 1453 1442 1443 1439 1436 1433 1432 1431 1428 1425 1422 1419 1415 1412 1408 1405
1452 1457 1460 1462 1463 1464 1465 1466 1468 1468 1469 1469 1470 1469 1469 1470 1468 1464 1461 1459 1453 1449 1449 1439 1436 1430 1426 1424 1423 1421 1418 1417 1414 1410 1407 1404 1400 1397
1448 1453 1457 1457 1458 1459 1461 1462 1464 1466 1463 1463 1465 1465 1464 1465 1462 1458 1457 1454 1445 1444 1442 1436 1429 1421 1417 1413 1413 1412 1410 1407 1404 1401 1398 1395 1392 1388
1448 1450 1453 1454 1456 1457 1459 1460 1459 1459 1459 1460 1461 1459 1459 1458 1457 1455 1453 1447 1443 1436 1436 1432 1425 1422 1407 1404 1406 1405 1398 1397 1395 1391 1388 1385 1382 1377
1446 1448 1450 1452 1453 1453 1454 1455 1455 1455 1456 1457 1456 1454 1453 1454 1454 1451 1448 1443 1439 1433 1431 1427 1421 1418 1415 1401 1396 1395 1393 1388 1385 1381 1377 1374 1370 1369
1443 1445 1446 1448 1450 1451 1450 1450 1451 1451 1451 1451 1451 1450 1450 1449 1446 1442 1440 1437 1433 1428 1424 1422 1416 1413 1406 1397 1390 1387 1385 1381 1377 1372 1368 1364 1362 1360
1440 1440 1443 1445 1445 1447 1447 1448 1448 1446 1447 1448 1447 1446 1445 1442 1437 1435 1432 1429 1425 1421 1418 1415 1411 1406 1402 1394 1385 1381 1375 1371 1368 1364 1360 1356 1352 1349
1439 1439 1441 1442 1442 1444 1446 1445 1444 1445 1445 1444 1442 1442 1438 1434 1432 1428 1424 1420 1415 1411 1410 1407 1404 1400 1393 1390 1383 1374 1371 1365 1360 1357 1353 1346 1342 1338
1437 1436 1438 1439 1440 1441 1443 1443 1443 1444 1442 1441 1439 1434 1432 1429 1425 1421 1417 1413 1409 1403 1400 1399 1396 1392 1388 1382 1374 1369 1362 1357 1354 1348 1343 1332 1328 1325
1433 1433 1435 1436 1439 1439 1441 1442 1439 1441 1439 1435 1432 1430 1426 1422 1417 1414 1411 1408 1403 1398 1394 1391 1386 1379 1374 1371 1372 1363 1357 1350 1344 1339 1333 1324 1314 1314
1430 1432 1434 1435 1435 1436 1436 1437 1437 1436 1432 1429 1426 1423 1419 1416 1413 1409 1405 1402 1397 1393 1388 1384 1380 1376 1367 1358 1358 1360 1348 1342 1335 1328 1325 1319 1308 1302
1427 1430 1431 1431 1432 1432 1433 1432 1430 1428 1426 1423 1420 1417 1414 1411 1407 1403 1400 1396 1391 1386 1380 1378 1375 1372 1366 1356 1345 1339 1344 1335 1330 1320 1311 1305 1298 1292
1426 1427 1427 1428 1428 1428 1427 1426 1424 1422 1419 1416 1413 1411 1408 1405 1401 1397 1393 1390 1385 1380 1374 1370 1367 1365 1358 1351 1341 1331 1326 1328 1324 1314 1304 1296 1285 1277
1423 1423 1424 1424 1424 1423 1422 1420 1417 1415 1413 1410 1407 1404 1401 1398 1395 1391 1387 1383 1378 1374 1368 1363 1359 1355 1350 1345 1335 1325 1315 1309 1309 1304 1301 1294 1284 1270
1418 1419 1419 1419 1418 1417 1415 1413 1410 1408 1406 1403 1399 1397 1394 1390 1388 1384 1380 1376 1372 1367 1362 1355 1352 1348 1342 1338 1330 1320 1311 1302 1295 1284 1279 1280 1274 1265